FALCONSAT

Satellite information

Favourite Embed

Satellite Type and Status

PAYLOADIN ORBIT

Key statistics

Satellite FALCONSAT at a glance.

Uptime

9394

Days in orbit

Revolutions

≈ 14.4

Per day

Orbit

SSO

Sun Synchronous Orbit

Inclination

100.2

Latest

Satellite identification and parameters

Extended collection of information and parameters for FALCONSAT.

Object identification

Identified? True

Debris? False

Object name: FALCONSAT

International designator: 2000-004D

Object number (NORAD): 26064

Object ID (CCSDS): 26064

Country: UNITED STATES OF AMERICA (US)

Current information (Y/N): Y

RCS size: MEDIUM

Orbital parameters

Period: 100.198 minutes

Inclination: 100.1988 deg

SMA: 7146.038 km

Apoapsis: 794.764 km

Periapsis: 741.042 km

RAAN: 168.8118 deg

Eccentricy: 0.00375886

Argument of periapsis: 28.6975 deg

Mean anomaly: 331.6263 deg

Mean motion: 14.37159009 rev/day

Mean motion (dot): 0.0000021 rev/day2

B* drag term: 0.000089756014 1/REarth

Two-line elements (TLE)

Creation date: Oct. 16, 2025, 2:37 a.m.

Reference frame: TEME

Reference center: EARTH

Epoch: Oct. 15, 2025, 11:01 p.m. UTC

TLE line 0: 0 FALCONSAT

TLE line 1: 1 26064U 00004D 25288.95941540 .00000210 00000-0 89756-4 0 9996

TLE line 2: 2 26064 100.1988 168.8118 0037589 28.6975 331.6263 14.37159009347680

Live tracking on map

Real-time ground track for satellite FALCONSAT.

In-orbit conjunctions

A list of the most updated potential collisions computed for object FALCONSAT.

Target Orbit TCA Probability of collision Miss distance Type
NOAA 16 DEB SSO 2025-06-14 13:15:50 0.0002262014 466.0 (m) DEBRIS
CZ-6A DEB SSO 2025-02-23 19:33:22 0.0001319628 762.0 (m) DEBRIS
DMSP 5D-2 F13 DEB SSO 2025-01-13 13:44:24 0.0003746527 751.0 (m) DEBRIS
THOR ABLESTAR DEB LEO 2024-11-21 21:23:54 0.0002101244 502.0 (m) DEBRIS
FENGYUN 1C DEB SSO 2024-11-15 23:47:06 0.0001169245 932.0 (m) DEBRIS

Associated space launch

The JAWSAT (Joint Air Force Academy / Weber State University Satellite) project was developed by students working alongside aerospace professionals. Initially designed with a pulsed-plasma thruster to train Air Force Academy cadets (see JAWSAT), the mission has since evolved to include the efforts of several universities, local aerospace companies, the Air Force Academy, the Air Force Research Laboratory, and NASA. Utilizing breakthrough technologies, JAWSAT deployed four satellites when it reached orbit. The onboard imaging system recorded the deployment of each payload with its six digital cameras. The first free-flying Academy satellite, FalconSat-1 carried the CHAWS (Charging Hazards and Wake Studies) experiment developed by the Physics Department at the Academy.

FALCONSAT was lifted into orbit during the mission ‘Minotaur I | JAWSAT & FalconSat 1’, on board a Minotaur I space rocket.

The launch took place on Jan. 27, 2000, 3:03 a.m. from Space Launch Complex 8.

For more information about the launch, click the button.

Launch to space Minotaur I | JAWSAT & FalconSat 1
Minotaur I | JAWSAT & FalconSat 1

Agency: N/A

Status: Launch Successful

Launch date: Jan. 27, 2000, 3:03 a.m. UTC

Rocket: Minotaur I

Launch pad: Space Launch Complex 8

Location: Vandenberg SFB, CA, USA

...

Latest news about this satellite

There are no fresh news available about this satellite. Check back as we update our databases every day.


Newsletter sign-up

Weekly statistics, charts and insights to help you stay on top of the space industry.